HST
1 20580U 90037B   24199.88993407  .00009382  00000-0  43770-3 0  9993
2 20580  28.4677 139.3608 0002478  13.0136 347.0520 15.18133679681703
ISS (ZARYA)
1 25544U 98067A   24200.15235088  .00018477  00000-0  33066-3 0  9998
2 25544  51.6371 161.9379 0010265  78.7950 281.4192 15.49981173463357
CXO
1 25867U 99040B   24202.24291878  .00000670  00000-0  00000+0 0  9993
2 25867  41.8191 150.9845 8854733 298.4036   0.6589  0.37805548 25843